Flag for Austria Weather past 2 weeks in Gänserndorf, Lower Austria, Austria

Now
67 °F

Passing clouds.


Feels Like: 67 °F
Forecast: 62 / 86 °F
Wind: 3 mph from South

Location: Wien / Schwechat-Flughafen

Current Time: Aug 2, 2014 at 12:34:25 AM

Latest Report: Aug 1, 2014 at 11:00 PM


Visibility: 19 mi

Pressure: 29.87 "Hg

Humidity: 88%

Dew point: 63 °F

Location of GänserndorfLocation

Historic Weather in Gänserndorf — Graph

°F

Gänserndorf temperature yesterday

Maximum temperature yesterday: 76 °F (at 6:00 PM)
Minimum temperature yesterday: 66 °F (at 7:00 AM)
Average temperature yesterday: 70 °F

Past Weeks' High & Low Weather Summary

 TemperatureHumidityPressure
High89 °F (Jul 20, 4:00 PM)100% (Jul 31, 4:00 AM)30.09 "Hg (Jul 31, 4:00 AM)
Low58 °F (Jul 26, 5:00 AM)36% (Jul 19, 6:00 PM)29.69 "Hg (Jul 21, 4:00 PM)
Average72 °F75%29.87 "Hg
* Reported Jul 17 11:00 PM — Aug 1 11:00 PM, Gänserndorf, Weather by CustomWeather, © 2014

Note: Actual official high and low records may vary slightly from our data, if they occured in-between our weather recording intervals... More about our weather records

Advertising

Gänserndorf weather history for previous 24 hours

 ConditionsComfort  
Time TempWeatherWind HumidityBarometerVisibility
11:00 PM
Aug 1
67 °FPassing clouds.3 mph88%29.87 "Hg19 mi
10:00 PM68 °FPassing clouds.3 mph87%29.86 "Hg19 mi
9:00 PM71 °FPassing clouds.N/A79%29.86 "Hg18 mi
8:00 PM74 °FPartly sunny.N/A76%29.85 "Hg14 mi
7:00 PM75 °FScattered clouds.3 mph73%29.85 "Hg12 mi
6:00 PM76 °FScattered clouds.3 mph70%29.85 "Hg14 mi
5:00 PM76 °FScattered clouds.3 mph70%29.84 "Hg5 mi
4:00 PM76 °FScattered clouds.5 mph71%29.85 "Hg13 mi
3:00 PM76 °FOvercast.5 mph72%29.86 "Hg16 mi
2:00 PM74 °FOvercast.3 mph74%29.88 "Hg12 mi
1:00 PM72 °FOvercast.5 mph78%29.89 "Hg13 mi
12:00 PM70 °FOvercast.5 mph81%29.90 "Hg14 mi
11:00 AM70 °FOvercast.5 mph81%29.90 "Hg16 mi
10:00 AM69 °FOvercast.5 mph83%29.91 "Hg15 mi
9:00 AM67 °FOvercast.6 mph87%29.90 "Hg16 mi
8:00 AM67 °FOvercast.6 mph88%29.90 "Hg15 mi
7:00 AM66 °FOvercast.7 mph90%29.90 "Hg19 mi
6:00 AM66 °FOvercast.5 mph89%29.90 "Hg14 mi
5:00 AM66 °FOvercast.6 mph88%29.90 "Hg9 mi
4:00 AM66 °FOvercast.6 mph87%29.91 "Hg16 mi
3:00 AM66 °FOvercast.6 mph87%29.91 "Hg19 mi
2:00 AM66 °FOvercast.7 mph88%29.91 "Hg16 mi
1:00 AM67 °FOvercast.7 mph88%29.91 "Hg18 mi
12:00 AM67 °FOvercast.7 mph86%29.91 "Hg19 mi
Weather by CustomWeather, © 2014

See weather overviewHow to use our weather pages